Retour au catalogue

CZ-8A R/B

ActifLEO
NORAD 100212·ROCKET BODY·🇨🇳 China

Lancé Aug 4, 2026 depuis Wenchang Space Launch Site

Loading…

Prochains Passages (prochaines 24 heures)

TLE

FraisSource: Space-Track

Époque: Sep 14, 2026, 22:24 UTC

1 A0212U 26176K   26257.93352682 -.00000661  00000-0 -57887-3 0  9990
2 A0212  49.9941 235.2020 0143474  24.6345 336.1311 13.67078821  5695

Suivez CZ-8A R/B en temps réel avec AllMySat

Download on the App Store